Location: Biharia
(46.4333°N, 22.8000°E)
Time: 00:21:14
(UTC+00:00)

SKYMED 2 - Pass Details

Date: 16 October 2021
Orbit: 621 x 623 km, 97.9° (Epoch: 26 November)

Event Time Altitude Azimuth Distance (km) Brightness Sun altitude
Rises 16:12:48 0° 18° (NNE) 2,916 6.8 -6.4°
Reaches altitude 10° 16:15:05 10° 25° (NNE) 2,004 5.9 -6.7°
Maximum altitude 16:19:17 45° 99° (E) 852 3.9 -7.5°
Drops below altitude 10° 16:23:26 10° 172° (S) 1,987 6.1 -8.2°
Sets 16:25:41 0° 179° (S) 2,888 7.0 -8.6°
